Location: Kerb�bon
(47.7970°N, 3.3487°W)
Time: 12:23:30
(UTC+00:00)

Resurs 01 Rocket - Pass Details

Date: 12 May 2021
Orbit: 633 x 645 km, 97.9° (Epoch: 18 June)

Event Time Altitude Azimuth Distance (km) Brightness Sun altitude
Exits shadow 22:03:10 - 217° (SW) 2,593 4.5 -18.0°
Reaches altitude 10° 22:05:09 10° 234° (SW) 2,038 4.2 -18.2°
Maximum altitude 22:07:47 15° 270° (W) 1,705 4.2 -18.4°
Drops below altitude 10° 22:10:27 10° 307° (NW) 2,045 5.2 -18.6°
Sets 22:13:31 0° 330° (NNW) 2,959 6.8 -18.9°
